www.pogodaiklimat.ru

Погода и климат >> Архив погоды >> Беларусь >> Ганцевичи


ПОГОДА в Ганцевичах

  • Прогноз погоды в Ганцевичах
  • Монитор погоды в Ганцевичах
  • Климат города

АРХИВ ПОГОДЫ в Ганцевичах

Время (UTC), дата Ветер
(напр.,м/с)
 
Видим.   Явления Облачность Т
(С)
Тd
(С)
f
(%)
Тe
(С)
Тes
(С)
Комфортность P
(гПа)
Po
(гПа)
Тmin
(С)
Tmax
(С)
R
(мм)
R24
(мм)
S
(см)
06 21.07 штиль 0 4500 м ливневой дождь 10 баллов +17.8 +17.5 98 +18 +18 1013.0 994.6 +14.2
09 21.07 штиль 0 10 км 3 балла +24.2 +19.0 73 +29 +43 душно 1013.0 995.0
12 21.07 С 2 10 км 6 баллов +25.0 +18.2 66 +29 +35 душно 1013.0 995.0
15 21.07 С 1 10 км 10 баллов +26.2 +17.3 58 +30 +30 душно 1012.0 994.1
18 21.07 штиль 0 10 км гроза, ливневой дождь 10 баллов +22.1 +17.5 75 +27 +27 душно 1012.0 993.9 +27.2
06 22.07 С 2 6000 м дымка 10 баллов +16.1 +15.0 93 +16 +16 1015.0 996.4 +15.4 19
09 22.07 СВ 2 10 км 10 баллов +20.2 +16.4 79 +24 +24 комфорт 1015.0 996.7
12 22.07 С 1 10 км 10 баллов +22.7 +15.8 65 +27 +27 душно 1016.0 997.8
15 22.07 С 2 10 км 10 баллов +22.8 +13.3 55 +26 +26 жарко 1016.0 997.8
18 22.07 штиль 0 10 км 10 баллов +20.1 +15.1 73 +22 +22 комфорт 1016.0 997.7 +23.6
06 23.07 В 1 10 км 3 балла +20.1 +13.1 64 +23 +28 комфорт 1018.0 999.6 +12.0
09 23.07 ЮВ 2 10 км 10 баллов +23.8 +12.7 50 +26 +26 жарко 1017.0 998.9
12 23.07 ЮВ 2 10 км 10 баллов +24.4 +12.0 46 +26 +26 жарко 1016.0 997.9
15 23.07 ЮВ 2 10 км 6 баллов +25.2 +12.4 45 +27 +29 жарко 1015.0 997.0
18 23.07 штиль 0 10 км 3 балла +20.2 +14.1 68 +22 +22 комфорт 1015.0 996.7 +25.4
06 24.07 ЮВ 1 6000 м ливневой дождь 10 баллов +16.8 +16.3 97 +18 +18 1011.0 992.6 +15.4 5
09 24.07 ЮВ 2 6000 м дымка 10 баллов +20.1 +17.7 86 +24 +24 комфорт 1010.0 991.8
12 24.07 ЮЗ 1 10 км 10 баллов +20.9 +17.9 83 +26 +26 душно 1010.0 991.8
15 24.07 ЮЗ 1 10 км 3 балла +24.1 +17.8 68 +28 +32 душно 1008.0 990.1
18 24.07 штиль 0 10 км 3 балла +21.2 +18.0 82 +25 +25 комфорт 1008.0 989.9 +24.6
06 25.07 СВ 2 5000 м туман 6 баллов +18.9 +18.9 100 +21 +23 комфорт 1004.0 985.8 +14.0
09 25.07 В 3 10 км 10 баллов +25.3 +19.7 71 +31 +31 очень
душно
1002.0 984.3
12 25.07 ЮВ 3 10 км гроза, ливневой дождь 10 баллов +26.1 +20.0 69 +32 +32 очень
душно
1000.0 982.3
15 25.07 СВ 3
{10}
4500 м гроза, ливневой дождь 10 баллов +18.9 +18.7 99 +21 +21 комфорт 1000.0 981.9
18 25.07 штиль 0 6000 м гроза, ливневой дождь 10 баллов +18.5 +18.5 100 +19 +19 999.0 980.9 +27.5 53
06 26.07 ЮВ 1 6000 м дымка 10 баллов +19.9 +18.7 93 +24 +24 комфорт 997.0 979.0 +17.2 9
09 26.07 ЮЗ 5 4000 м ливневой дождь 10 баллов +18.0 +17.4 96 +18 +18 999.0 980.9
12 26.07 ЮЗ 4
{10}
6000 м дымка 10 баллов +17.8 +15.6 87 +18 +18 1002.0 983.8
15 26.07 ЮЗ 3 10 км 6 баллов +20.8 +14.4 67 +24 +25 комфорт 1003.0 984.9
18 26.07 штиль 0 6000 м дымка 3 балла +17.2 +14.8 86 +17 +17 1004.0 985.7 +21.3 1
06 27.07 штиль 0 10 км 3 балла +18.6 +15.3 81 +19 +25 1007.0 988.7 +11.9
09 27.07 ЮЗ 3 10 км 6 баллов +23.4 +14.1 56 +27 +32 душно 1007.0 989.0
12 27.07 Ю 1 10 км 10 баллов +25.0 +14.1 51 +27 +27 жарко 1006.0 988.1
15 27.07 Ю 1 10 км 10 баллов +25.1 +13.6 49 +27 +27 жарко 1006.0 988.1
18 27.07 штиль 0 10 км 10 баллов +21.8 +16.1 70 +26 +26 душно 1007.0 988.9 +26.0

 

Местоположение метеостанции Ганцевичи (Брестская область, Беларусь): широта 52.75 долгота 26.44 высота над уровнем моря 157 м.

В архиве по умолчанию представлена погода в Ганцевичах за последнюю неделю. Архивные данные за месяц целиком и за предыдущие месяцы, начиная с января 2011 года, Вы можете получить, выбрав интересующий диапазон дат из раскрывающегося списка и нажав кнопку "Ввод!".

Внимание! Время в таблицах - всемирное. Для получения местного времени необходимо прибавить поправку, которая в Ганцевичах равна 3 ч.

Смотрите также архив погоды в соседних городах и на ближайших метеорологических станциях:

Погода в Полесской (Брестская область, Беларусь) (53 км)
Погода в Ивацевичах (Брестская область, Беларусь) (73 км)
Погода в Пинске (Брестская область, Беларусь) (75 км)
Погода в Слуцке (Минская область, Беларусь) (81 км)
Погода в Столбцах (Минская область, Беларусь) (83 км)
Погода в Новогрудке (Гродненская область, Беларусь) (102 км)
Погода в Барановичах (Брестская область, Беларусь) (111 км)
Погода в Житковичах (Гомельская область, Беларусь) (113 км)
Погода в Пружанах (Брестская область, Беларусь) (133 км)
Погода в Марьиной Горке (Минская область, Беларусь) (137 км)

Пояснения к столбцам:

Ветер - указаны скорость ветра в м/с - средняя за 10 мин, порывы в срок и между сроками (в фигурных скобках) и направление, откуда дует ветер: С - северный, СВ - северо-восточный, В - восточный, ЮВ - юго-восточный, Ю - южный, ЮЗ - юго-западный, З - западный, СЗ - северо-западный.
Видимость - горизонтальная дальность видимости в метрах или километрах. При видимости от 1 до 10 км при отсутствии осадков обычно наблюдается дымка, при ухудшении видимости до 1 км и менее - туман. В сухую погоду видимость может ухудшаться дымом, пылью или мглою.
Явления - указаны атмосферные явления, наблюдавшиеся в срок или в последний час перед сроком; фигурными скобками обозначены явления, наблюдавшиеся между сроками (за 1-3 часа до срока); квадратными скобками обозначены град или гололедные отложения с указанием их диаметра в мм.
Облачность - указаны через наклонную черту общая и нижняя облачность в баллах и высота нижней границы облаков в метрах; квадратными скобками обозначены формы облаков: Ci - перистые, Cs - перисто-слоистые, Cc - перисто-кучевые, Ac - высококучевые, As - высокослоистые, Sc - слоисто-кучевые, Ns - слоисто-дождевые, Cu - кучевые, Cb - кучево-дождевые. Подробнее классификацию облаков см. в Атласе облаков (PDF).
T - Температура воздуха - температура, измеренная на высоте 2 м над землей.
Td - Температура точки росы - температура, при понижении до которой содержащийся в воздухе водяной пар достигнет насыщения.
f - Относительная влажность воздуха - влажноcть воздуха, измеренная на высоте 2 м над землей.
Te - Эффективная температура - температура, которую ощущает одетый по сезону человек в тени. Характеристика душности погоды. При расчете учитывается влияние влажности воздуха и скорости ветра на теплоощущения человека.
Tes - Эффективная температура на солнце - температура, которую ощущает человек, с поправкой на солнечный нагрев. Характеристика знойности погоды. Зависит от высоты солнца над горизонтом, облачности и скорости ветра. Ночью, в пасмурную погоду, а также при ветре 12 м/с и более поправка равна нулю.
P - Атмосферное давление - приведенное к уровню моря атмосферное давление.
Po - Атмосферное давление - измеренное на уровне метеостанции атмосферное давление.
Tmin - Минимальная температура - минимум температуры воздуха на высоте 2 м над землей.
Tmax - Максимальная температура - максимум температуры воздуха на высоте 2 м над землей.
R - Количество осадков - Количество выпавших осадков за период времени, мм. При наведении курсора мыши на число - период времени, за который выпало указанное количество осадков.
R24 - Количество осадков - Количество выпавших осадков за 24 часа, мм.
S - Снежный покров - Высота снежного покрова, см. При наведении курсора мыши на число - состояние снежного покрова и степень покрытия местности в баллах.